Location: Dennis Manor
(64.8292°N, 147.5397°W)
Time: 08:38:41
(UTC+00:00)

Envisat - Pass Details

Date: 30 October 2020
Orbit: 764 x 766 km, 98.1° (Epoch: 05 December)

Event Time Altitude Azimuth Distance (km) Brightness Sun altitude
Rises 04:48:59 0° 228° (SW) 3,234 6.8 -20.5°
Reaches altitude 10° 04:52:30 10° 253° (WSW) 2,313 6.4 -20.9°
Maximum altitude 04:55:05 14° 284° (WNW) 2,058 6.3 -21.2°
Drops below altitude 10° 04:57:40 10° 315° (NW) 2,319 6.3 -21.4°
Sets 05:01:14 0° 341° (NNW) 3,251 6.7 -21.8°
